Location: Newark
(40.7360°N, 74.1730°W)
Time: 00:20:33
(UTC-05:00)

Amateur Radio Satellites - All Passes

Search period start: 27 February 2015 23:50
Search period end: 28 February 2015 23:50
Location: Newark, 40.7360°N, 74.1730°W

Satellite Date Start Highest point End Downlink Frequencies (MHz)
Time Altitude Azimuth
BEESAT 27 Feb 23:56:59 00:01:04 30° 69° (ENE) 00:05:15 436.000
ANTELSAT 27 Feb 23:59:12 00:01:42 15° 294° (WNW) 00:04:02 437.575/2403.000
TISAT 1 28 Feb 00:04:56 00:08:53 34° 263° (W) 00:12:47 437.305
Oscar 19 28 Feb 00:07:28 00:08:56 11° 87° (E) 00:10:44 437.125/150
QB50P1 28 Feb 00:20:06 00:22:38 15° 294° (WNW) 00:24:59 145.935-145.965
ITUPSAT 1 28 Feb 00:21:39 00:26:16 51° 72° (ENE) 00:30:56 437.325
DANDE 28 Feb 00:22:22 00:29:49 86° 99° (E) 00:35:28 436.750
QB50P2 28 Feb 00:22:58 00:25:15 14° 295° (WNW) 00:27:23 145.880/145.840
PHONESAT 2.4 28 Feb 00:26:50 00:29:54 26° 207° (SSW) 00:32:57 2401.200-2431.200
KKS-1 28 Feb 01:00:59 01:04:38 26° 68° (ENE) 01:08:23 437.445
CUSAT 1 28 Feb 01:12:56 01:18:45 30° 285° (WNW) 01:23:18 437.405
STARS 28 Feb 01:14:59 01:18:27 23° 68° (ENE) 01:22:01 437.465
BEESAT 2 28 Feb 01:19:41 01:21:32 13° 39° (NE) 01:23:31 435.950
SO-50 28 Feb 01:19:49 01:23:19 23° 112° (ESE) 01:27:01 436.795
SWISSCUBE 28 Feb 01:25:18 01:29:36 32° 264° (W) 01:33:54 437.505
BEESAT 28 Feb 01:34:46 01:38:55 28° 265° (W) 01:43:01 436.000
ITAMSAT 1 28 Feb 01:35:32 01:39:59 28° 95° (E) 01:44:29 435.822/435.867
RS-15 28 Feb 01:43:47 01:53:52 39° 322° (NW) 02:04:01 29.354- 29.394
Oscar 19 28 Feb 01:43:52 01:49:01 80° 285° (WNW) 01:54:09 437.125/150
YUBILEINY 28 Feb 01:47:40 01:53:42 21° 61° (ENE) 02:00:08 435.215
ITUPSAT 1 28 Feb 02:01:26 02:04:32 16° 270° (W) 02:07:27 437.325
DANDE 28 Feb 02:09:44 02:13:30 15° 292° (WNW) 02:16:30 436.750
Gurwin Techsat 1B 28 Feb 02:28:11 02:33:30 67° 101° (ESE) 02:38:47 435.225
BEESAT 3 28 Feb 02:34:13 02:38:20 65° 55° (NE) 02:42:24 437.485
AIST 2 28 Feb 02:36:23 02:39:58 25° 47° (NE) 02:43:32 435.215
JAS-2 28 Feb 02:36:28 02:37:59 11° 83° (E) 02:40:13 435.910
KKS-1 28 Feb 02:37:15 02:41:13 30° 264° (W) 02:45:08 437.445
AO-7 28 Feb 02:42:18 02:47:32 19° 89° (E) 02:53:12 29.400- 29.500
M-CUBED/EXP-1 PRIME 28 Feb 02:42:48 02:45:42 29° 66° (ENE) 02:48:42 437.505
AUBIESAT-1 28 Feb 02:47:27 02:50:20 30° 66° (ENE) 02:53:21 437.475
STARS 28 Feb 02:50:47 02:54:48 32° 264° (W) 02:58:47 437.465
HORYU 2 28 Feb 02:54:06 02:58:02 31° 96° (E) 03:02:01 437.375
BEESAT 2 28 Feb 02:56:11 03:00:22 86° 240° (WSW) 03:04:29 435.950
SO-50 28 Feb 02:59:14 03:03:37 42° 309° (NW) 03:08:10 436.795
ITAMSAT 1 28 Feb 03:14:48 03:19:33 35° 291° (WNW) 03:24:12 435.822/435.867
MOZHAYETS 4 28 Feb 03:25:43 03:29:57 40° 72° (ENE) 03:34:15
Oscar 19 28 Feb 03:26:50 03:27:38 10° 301° (WNW) 03:28:08 437.125/150
YUBILEINY 28 Feb 03:42:59 03:51:53 85° 263° (W) 04:00:43 435.215
RS-15 28 Feb 04:02:57 04:10:36 20° 355° (N) 04:18:22 29.354- 29.394
Gurwin Techsat 1B 28 Feb 04:09:37 04:12:59 17° 297° (WNW) 04:16:08 435.225
BEESAT 3 28 Feb 04:14:35 04:15:57 11° 251° (WSW) 04:17:06 437.485
AIST 2 28 Feb 04:14:46 04:18:39 34° 245° (WSW) 04:22:25 435.215
JAS-2 28 Feb 04:17:02 04:24:20 66° 100° (E) 04:32:08 435.910
M-CUBED/EXP-1 PRIME 28 Feb 04:19:07 04:20:52 13° 263° (W) 04:22:29 437.505
AUBIESAT-1 28 Feb 04:23:43 04:25:27 13° 264° (W) 04:27:04 437.475
HORYU 2 28 Feb 04:30:59 04:34:36 24° 292° (WNW) 04:38:09 437.375
AO-7 28 Feb 04:33:07 04:41:28 86° 288° (WNW) 04:49:45 29.400- 29.500
CUTE-I 28 Feb 04:51:25 04:52:13 10° 86° (E) 04:53:25 437.470
MOZHAYETS 4 28 Feb 05:04:06 05:07:24 19° 268° (W) 05:10:36
CUBESAT XI-V 28 Feb 05:15:50 05:20:16 45° 73° (ENE) 05:24:47 437.345
PCSat 28 Feb 05:29:54 05:34:49 34° 51° (NE) 05:39:45 145.827
PRISM 28 Feb 05:40:05 05:44:13 87° 256° (WSW) 05:48:25 437.425
YUBILEINY 28 Feb 05:42:23 05:47:32 16° 282° (WNW) 05:52:08 435.215
STRAND 1 28 Feb 05:46:34 05:51:37 61° 73° (ENE) 05:56:43 437.568
JAS-2 28 Feb 06:03:00 06:08:57 27° 296° (WNW) 06:15:03 435.910
Cubesat XI-IV 28 Feb 06:17:52 06:23:17 75° 102° (ESE) 06:28:38 437.490
RS-15 28 Feb 06:18:43 06:28:05 30° 29° (NNE) 06:38:01 29.354- 29.394
AO-7 28 Feb 06:27:31 06:33:16 21° 307° (NW) 06:38:43 29.400- 29.500
CUTE-I 28 Feb 06:27:46 06:33:10 90° 350° (N) 06:38:32 437.470
AIST 1 28 Feb 06:51:56 06:55:55 38° 92° (E) 07:00:00
CUBESAT XI-V 28 Feb 06:54:44 06:58:00 18° 269° (W) 07:01:09 437.345
HO-68 28 Feb 07:10:04 07:12:22 12° 85° (E) 07:15:15 435.675
PCSat 28 Feb 07:13:20 07:18:15 35° 249° (WSW) 07:23:05 145.827
STRAND 1 28 Feb 07:28:11 07:31:20 16° 271° (W) 07:34:15 437.568
COMPASS 1 28 Feb 07:50:01 07:50:43 10° 88° (E) 07:51:42 437.405
GONETS M04 28 Feb 07:55:15 08:02:31 29° 67° (ENE) 08:10:02
Cubesat XI-IV 28 Feb 07:59:41 08:02:49 15° 299° (WNW) 08:05:42 437.490
BRITE-PL 28 Feb 08:01:07 08:05:24 36° 96° (E) 08:09:25 437.365/2234.400
CANX-2 28 Feb 08:09:10 08:12:52 29° 95° (E) 08:16:37 2200.000
CUTE-I 28 Feb 08:10:12 08:12:34 13° 300° (WNW) 08:14:40 437.470
SEEDS 28 Feb 08:10:49 08:14:11 23° 94° (E) 08:17:37 437.485
GOMX 1 28 Feb 08:20:39 08:24:47 38° 96° (E) 08:28:45 467.674
CUTE 1.7 + AOD 2 28 Feb 08:27:57 08:32:01 43° 98° (E) 08:36:05 437.475
AIST 1 28 Feb 08:30:48 08:33:49 18° 290° (WNW) 08:36:44
RS-15 28 Feb 08:31:09 08:42:39 80° 56° (NE) 08:54:39 29.354- 29.394
ISS 28 Feb 08:37:55 08:39:34 14° 131° (SE) 08:41:19 145.825
CUBEBUG 2 28 Feb 08:42:38 08:44:13 12° 89° (E) 08:46:01 437.445
UNISAT 6 28 Feb 08:42:52 08:45:47 18° 67° (ENE) 08:48:49 437.425
HO-68 28 Feb 08:54:12 09:01:25 77° 104° (ESE) 09:08:37 435.675
Oscar 11 28 Feb 08:54:21 08:57:52 24° 94° (E) 09:01:28 145.826/435.025
NANOSAT C BR1 28 Feb 09:04:55 09:07:36 17° 66° (ENE) 09:10:25 145.865
TIGRISAT 28 Feb 09:08:17 09:12:11 32° 71° (ENE) 09:16:05 435.000
DOVE 4 28 Feb 09:08:51 09:13:13 89° 305° (NW) 09:17:23 437.250
DELFI C3 28 Feb 09:12:06 09:15:41 29° 96° (E) 09:19:19 145.870
DX 1 28 Feb 09:14:03 09:17:06 19° 92° (E) 09:20:16 434.975-435.025
ANTELSAT 28 Feb 09:19:57 09:24:09 43° 72° (ENE) 09:28:18 437.575/2403.000
AAUSAT CUBESAT 2 28 Feb 09:22:26 09:26:37 73° 284° (WNW) 09:30:47 437.432
COMPASS 1 28 Feb 09:22:46 09:26:56 62° 285° (WNW) 09:31:05 437.405
FUNcube-1 28 Feb 09:32:56 09:36:37 30° 96° (E) 09:40:19 145.935
ZACube-1 28 Feb 09:33:07 09:36:49 31° 96° (E) 09:40:33 437.345
QB50P1 28 Feb 09:35:36 09:39:31 35° 71° (ENE) 09:43:27 145.935-145.965
CINEMA 3 28 Feb 09:37:47 09:42:00 81° 285° (WNW) 09:46:08 145.822/145.860
QB50P2 28 Feb 09:38:21 09:42:19 38° 72° (ENE) 09:46:21 145.880/145.840
BRITE-PL 28 Feb 09:40:11 09:43:43 21° 294° (WNW) 09:46:57 437.365/2234.400
CANX-2 28 Feb 09:45:18 09:48:42 23° 291° (WNW) 09:52:02 2200.000
UWE-3 28 Feb 09:45:38 09:49:43 55° 100° (E) 09:53:47 435.000/436.395/437.385
SEEDS 28 Feb 09:46:22 09:50:02 28° 290° (WNW) 09:53:38 437.485
UKube-1 28 Feb 09:46:27 09:50:34 40° 99° (E) 09:54:40 .
O/OREOS (USA 219) 28 Feb 09:46:32 09:51:05 89° 291° (WNW) 09:55:42 437.305
SO-50 28 Feb 09:50:44 09:54:43 24° 44° (NE) 09:58:45 436.795
GONETS M04 28 Feb 09:51:27 10:00:01 61° 268° (W) 10:08:34
DUCHIFAT 1 28 Feb 09:55:42 09:59:55 59° 74° (ENE) 10:04:08 145.980
HUMSAT D 28 Feb 09:58:36 10:02:15 31° 96° (E) 10:05:58 437.325/437.525
GOMX 1 28 Feb 09:59:30 10:02:41 19° 294° (WNW) 10:05:37 467.674
BUGSAT 1 28 Feb 10:00:27 10:04:35 50° 73° (ENE) 10:08:45 437.445
CUTE 1.7 + AOD 2 28 Feb 10:04:54 10:07:39 17° 293° (WNW) 10:10:15 437.475
ISS 28 Feb 10:12:29 10:15:41 63° 327° (NNW) 10:18:53 145.825
POLYITAN 1 28 Feb 10:12:30 10:16:50 86° 257° (WSW) 10:21:09 437.675
POPSAT HIP 1 28 Feb 10:14:29 10:18:48 84° 259° (W) 10:23:07 437.405
CUBEBUG 2 28 Feb 10:17:18 10:21:21 51° 286° (WNW) 10:25:22 437.445
UNISAT 6 28 Feb 10:18:06 10:22:21 42° 262° (W) 10:26:30 437.425
50 SAT 28 Feb 10:24:35 10:28:22 43° 98° (E) 10:32:09 437.505
Oscar 11 28 Feb 10:30:19 10:34:04 28° 290° (WNW) 10:37:44 145.826/435.025
NANOSAT C BR1 28 Feb 10:39:04 10:43:10 43° 261° (W) 10:47:16 145.865
AISAT 28 Feb 10:39:37 10:44:05 68° 102° (ESE) 10:48:29 437.250
HO-68 28 Feb 10:43:12 10:48:30 22° 302° (WNW) 10:53:32 435.675
RS-15 28 Feb 10:44:50 10:54:10 28° 255° (WSW) 11:03:18 29.354- 29.394
TIGRISAT 28 Feb 10:45:28 10:49:01 23° 266° (W) 10:52:26 435.000
DELFI C3 28 Feb 10:47:36 10:50:46 21° 291° (WNW) 10:53:50 145.870
DX 1 28 Feb 10:49:28 10:53:32 38° 289° (WNW) 10:57:33 434.975-435.025
VELOX 1 28 Feb 10:50:30 10:54:59 87° 103° (ESE) 10:59:25 145.980
CUBEBUG 1 28 Feb 10:53:01 10:57:10 39° 97° (E) 11:01:18 437.445
ESTCUBE 1 28 Feb 10:55:37 11:00:01 47° 99° (E) 11:04:25 437.505/2401.250
ANTELSAT 28 Feb 10:58:17 11:01:13 16° 269° (W) 11:03:55 437.575/2403.000
DANDE 28 Feb 11:06:58 11:09:40 42° 77° (ENE) 11:12:09 436.750
FUNcube-1 28 Feb 11:09:39 11:12:50 21° 292° (WNW) 11:15:55 145.935
ZACube-1 28 Feb 11:09:54 11:13:03 21° 292° (WNW) 11:16:06 437.345
QB50P1 28 Feb 11:12:22 11:15:33 19° 268° (W) 11:18:37 145.935-145.965
QB50P2 28 Feb 11:15:25 11:18:26 18° 268° (W) 11:21:19 145.880/145.840
Oscar 19 28 Feb 11:23:19 11:26:40 18° 64° (ENE) 11:30:11 437.125/150
UKube-1 28 Feb 11:23:24 11:26:28 18° 294° (WNW) 11:29:24 .
UWE-3 28 Feb 11:23:57 11:25:52 13° 295° (WNW) 11:27:37 435.000/436.395/437.385
O/OREOS (USA 219) 28 Feb 11:30:03 11:31:20 11° 312° (NW) 11:32:24 437.305
SO-50 28 Feb 11:30:46 11:35:35 51° 242° (WSW) 11:40:20 436.795
DUCHIFAT 1 28 Feb 11:34:32 11:36:14 12° 271° (W) 11:37:39 145.980
HUMSAT D 28 Feb 11:34:49 11:37:54 20° 292° (WNW) 11:40:54 437.325/437.525
SPROUT 28 Feb 11:36:16 11:40:00 29° 95° (E) 11:43:46 437.525
BUGSAT 1 28 Feb 11:38:06 11:40:25 14° 270° (W) 11:42:34 437.445
TISAT 1 28 Feb 11:49:52 11:53:47 36° 98° (E) 11:57:41 437.305
ISS 28 Feb 11:50:28 11:52:37 16° 345° (NNW) 11:54:44 145.825
CUSAT 1 28 Feb 11:53:19 11:55:13 17° 267° (W) 11:57:01 437.405
50 SAT 28 Feb 12:00:52 12:03:04 14° 294° (WNW) 12:05:07 437.505
Gurwin Techsat 1B 28 Feb 12:12:28 12:14:57 14° 61° (ENE) 12:17:42 435.225
AISAT 28 Feb 12:18:18 12:20:11 12° 297° (WNW) 12:21:53 437.250
ITUPSAT 1 28 Feb 12:24:17 12:26:35 14° 89° (E) 12:29:09 437.325
CUBEBUG 1 28 Feb 12:30:06 12:33:18 19° 293° (WNW) 12:36:22 437.445
ESTCUBE 1 28 Feb 12:33:29 12:36:34 18° 294° (WNW) 12:39:31 437.505/2401.250
ITAMSAT 1 28 Feb 12:53:06 12:57:58 42° 70° (ENE) 13:02:55 435.822/435.867
Oscar 19 28 Feb 13:00:34 13:05:38 57° 259° (W) 13:10:42 437.125/150
SPROUT 28 Feb 13:12:31 13:16:01 24° 291° (WNW) 13:19:25 437.525
SWISSCUBE 28 Feb 13:25:20 13:30:08 65° 101° (E) 13:34:56 437.505
TISAT 1 28 Feb 13:26:19 13:29:22 19° 293° (WNW) 13:32:17 437.305
ISS 28 Feb 13:28:34 13:30:03 12° 5° (N) 13:31:33 145.825
BEESAT 28 Feb 13:34:28 13:39:18 75° 103° (ESE) 13:44:05 436.000
AO-7 28 Feb 13:40:54 13:47:36 29° 57° (ENE) 13:54:28 29.400- 29.500
Gurwin Techsat 1B 28 Feb 13:49:00 13:54:20 81° 257° (WSW) 13:59:41 435.225
HORYU 2 28 Feb 13:52:29 13:56:16 29° 69° (ENE) 14:00:06 437.375
ITUPSAT 1 28 Feb 14:00:13 14:05:00 62° 287° (WNW) 14:09:45 437.325
KKS-1 28 Feb 14:28:07 14:32:29 52° 100° (E) 14:36:48 437.445
JAS-2 28 Feb 14:31:06 14:35:18 24° 63° (ENE) 14:39:59 435.910
ITAMSAT 1 28 Feb 14:33:30 14:37:41 23° 267° (W) 14:41:46 435.822/435.867
STARS 28 Feb 14:40:34 14:44:46 45° 99° (E) 14:48:59 437.465
YUBILEINY 28 Feb 14:49:36 14:55:43 23° 81° (E) 15:02:13 435.215
ISS 28 Feb 15:04:30 15:07:19 26° 25° (NNE) 15:10:09 145.825
SWISSCUBE 28 Feb 15:04:50 15:07:32 15° 297° (WNW) 15:10:02 437.505
BEESAT 28 Feb 15:14:22 15:16:36 13° 298° (WNW) 15:18:36 436.000
HORYU 2 28 Feb 15:29:11 15:32:56 26° 265° (W) 15:36:37 437.375
AO-7 28 Feb 15:31:32 15:39:51 68° 256° (WSW) 15:48:10 29.400- 29.500
M-CUBED/EXP-1 PRIME 28 Feb 15:58:10 16:01:56 32° 102° (ESE) 16:06:00 437.505
AUBIESAT-1 28 Feb 16:02:18 16:06:05 32° 102° (ESE) 16:10:08 437.475
Cubesat XI-IV 28 Feb 16:02:21 16:05:29 16° 62° (ENE) 16:08:51 437.490
KKS-1 28 Feb 16:06:04 16:08:45 15° 295° (WNW) 16:11:14 437.445
CUTE-I 28 Feb 16:11:30 16:15:09 20° 64° (ENE) 16:18:58 437.470
JAS-2 28 Feb 16:14:53 16:20:04 47° 263° (W) 16:25:46 435.910
STARS 28 Feb 16:18:03 16:20:57 17° 294° (WNW) 16:23:40 437.465
BEESAT 3 28 Feb 16:30:00 16:31:45 13° 110° (ESE) 16:33:42 437.485
ISS 28 Feb 16:40:45 16:43:51 42° 222° (SW) 16:46:56 145.825
YUBILEINY 28 Feb 16:43:00 16:51:44 74° 280° (W) 17:00:33 435.215
BEESAT 2 28 Feb 16:51:28 16:54:22 19° 112° (ESE) 16:57:25 435.950
MOZHAYETS 4 28 Feb 16:57:50 17:02:30 80° 283° (WNW) 17:07:08
AIST 1 28 Feb 17:02:21 17:02:38 10° 65° (ENE) 17:03:14
CUBESAT XI-V 28 Feb 17:15:09 17:16:39 12° 87° (E) 17:18:27 437.345
PRISM 28 Feb 17:24:44 17:26:48 14° 90° (E) 17:29:05 437.425
VERMONT LUNAR 28 Feb 17:30:35 17:32:57 17° 150° (SSE) 17:35:23 437.305
AO-7 28 Feb 17:31:37 17:34:24 11° 276° (W) 17:36:25 29.400- 29.500
M-CUBED/EXP-1 PRIME 28 Feb 17:33:22 17:36:46 24° 295° (WNW) 17:40:18 437.505
AUBIESAT-1 28 Feb 17:37:25 17:40:51 25° 295° (WNW) 17:44:24 437.475
Cubesat XI-IV 28 Feb 17:39:44 17:45:04 70° 258° (WSW) 17:50:28 437.490
HO-68 28 Feb 17:41:25 17:42:39 11° 50° (NE) 17:44:21 435.675
CUTE-I 28 Feb 17:49:33 17:54:49 58° 259° (W) 18:00:09 437.470
STRAND 1 28 Feb 17:58:15 18:02:03 21° 92° (E) 18:05:59 437.568
BEESAT 3 28 Feb 18:05:22 18:09:25 58° 305° (NW) 18:13:31 437.485
AIST 2 28 Feb 18:12:03 18:16:10 53° 118° (ESE) 18:20:24 435.215
O/OREOS (USA 219) 28 Feb 18:18:33 18:21:42 18° 54° (NE) 18:24:58 437.305
BEESAT 2 28 Feb 18:28:25 18:32:19 39° 308° (NW) 18:36:16 435.950
AIST 1 28 Feb 18:36:34 18:40:59 72° 264° (W) 18:45:21
DOVE 4 28 Feb 18:39:50 18:41:13 11° 63° (ENE) 18:42:53 437.250
YUBILEINY 28 Feb 18:45:43 18:50:31 15° 304° (WNW) 18:54:47 435.215
CUBESAT XI-V 28 Feb 18:50:00 18:54:43 70° 285° (WNW) 18:59:22 437.345
PHONESAT 2.4 28 Feb 18:54:14 18:57:31 32° 156° (SSE) 19:00:48 2401.200-2431.200
PRISM 28 Feb 18:58:33 19:02:39 49° 287° (WNW) 19:06:44 437.425
CANX-2 28 Feb 19:02:35 19:05:44 21° 68° (ENE) 19:08:58 2200.000
SEEDS 28 Feb 19:03:43 19:06:21 17° 67° (ENE) 19:09:07 437.485
VERMONT LUNAR 28 Feb 19:07:04 19:10:30 58° 165° (SSE) 19:13:57 437.305
BRITE-PL 28 Feb 19:10:13 19:15:38 47° 72° (ENE) 19:20:54 437.365/2234.400
CUTE 1.7 + AOD 2 28 Feb 19:20:57 19:24:37 30° 71° (ENE) 19:28:21 437.475
HO-68 28 Feb 19:22:08 19:29:02 56° 69° (ENE) 19:36:00 435.675
GOMX 1 28 Feb 19:27:21 19:32:30 46° 73° (ENE) 19:37:30 467.674
STRAND 1 28 Feb 19:36:36 19:41:31 45° 289° (WNW) 19:46:24 437.568
CUBEBUG 2 28 Feb 19:41:20 19:43:07 13° 65° (ENE) 19:45:07 437.445
Oscar 11 28 Feb 19:49:32 19:52:35 20° 67° (ENE) 19:55:43 145.826/435.025
AIST 2 28 Feb 19:52:02 19:55:08 19° 317° (NW) 19:58:10 435.215
O/OREOS (USA 219) 28 Feb 19:57:01 20:01:28 48° 253° (WSW) 20:05:51 437.305
DELFI C3 28 Feb 20:00:42 20:03:29 19° 68° (ENE) 20:06:25 145.870
DX 1 28 Feb 20:09:59 20:12:49 17° 66° (ENE) 20:15:47 434.975-435.025
PCSat 28 Feb 20:11:40 20:16:19 31° 110° (ESE) 20:21:05 145.827
AAUSAT CUBESAT 2 28 Feb 20:13:01 20:17:08 72° 77° (ENE) 20:21:16 437.432
DOVE 4 28 Feb 20:13:11 20:18:25 88° 77° (ENE) 20:23:26 437.250
COMPASS 1 28 Feb 20:13:43 20:17:52 85° 78° (ENE) 20:22:03 437.405
FUNcube-1 28 Feb 20:28:49 20:32:24 26° 70° (ENE) 20:36:01 145.935
ZACube-1 28 Feb 20:29:09 20:32:47 26° 70° (ENE) 20:36:26 437.345
PHONESAT 2.4 28 Feb 20:32:08 20:35:47 80° 174° (S) 20:39:25 2401.200-2431.200
CANX-2 28 Feb 20:37:44 20:41:31 32° 264° (W) 20:45:18 2200.000
SEEDS 28 Feb 20:37:56 20:41:54 40° 262° (W) 20:45:52 437.485
CINEMA 3 28 Feb 20:38:37 20:43:29 89° 83° (E) 20:48:10 145.822/145.860
UKube-1 28 Feb 20:41:16 20:45:11 34° 70° (ENE) 20:49:09 .
UWE-3 28 Feb 20:42:26 20:46:42 45° 73° (ENE) 20:50:53 435.000/436.395/437.385
VERMONT LUNAR 28 Feb 20:44:53 20:48:24 89° 182° (S) 20:51:53 437.305
BRITE-PL 28 Feb 20:49:44 20:54:20 24° 268° (W) 20:58:42 437.365/2234.400
HUMSAT D 28 Feb 20:50:50 20:54:07 23° 69° (ENE) 20:57:28 437.325/437.525
GONETS M04 28 Feb 20:56:30 21:03:49 33° 86° (E) 21:11:22
CUTE 1.7 + AOD 2 28 Feb 20:57:17 21:00:37 22° 267° (W) 21:03:51 437.475
GOMX 1 28 Feb 21:06:33 21:10:49 23° 268° (W) 21:14:51 467.674
HO-68 28 Feb 21:11:10 21:17:10 28° 267° (W) 21:23:01 435.675
50 SAT 28 Feb 21:11:28 21:14:48 26° 70° (ENE) 21:18:11 437.505
CUBEBUG 2 28 Feb 21:14:51 21:19:24 67° 259° (W) 21:23:49 437.445
Oscar 11 28 Feb 21:24:33 21:28:32 36° 263° (W) 21:32:32 145.826/435.025
DELFI C3 28 Feb 21:34:51 21:38:30 33° 263° (W) 21:42:11 145.870
AISAT 28 Feb 21:37:10 21:41:35 59° 74° (ENE) 21:46:03 437.250
DX 1 28 Feb 21:44:33 21:48:46 44° 261° (W) 21:53:00 434.975-435.025
VELOX 1 28 Feb 21:47:44 21:52:12 75° 75° (ENE) 21:56:42 145.980
CUBEBUG 1 28 Feb 21:49:03 21:53:00 33° 70° (ENE) 21:57:01 437.445
PCSat 28 Feb 21:54:37 21:59:40 38° 307° (NW) 22:04:42 145.827
ESTCUBE 1 28 Feb 21:55:04 21:59:18 42° 72° (ENE) 22:03:36 437.505/2401.250
DOVE 4 28 Feb 21:55:52 21:56:51 10° 274° (W) 21:57:27 437.250
POLYITAN 1 28 Feb 21:59:51 22:02:21 16° 91° (E) 22:05:00 437.675
POPSAT HIP 1 28 Feb 22:01:30 22:04:03 16° 91° (E) 22:06:46 437.405
FUNcube-1 28 Feb 22:04:52 22:08:41 28° 265° (W) 22:12:24 145.935
ZACube-1 28 Feb 22:05:19 22:09:08 27° 265° (W) 22:12:48 437.345
UNISAT 6 28 Feb 22:10:16 22:14:15 37° 98° (E) 22:18:17 437.425
PHONESAT 2.4 28 Feb 22:10:37 22:14:15 78° 189° (S) 22:17:52 2401.200-2431.200
UKube-1 28 Feb 22:18:06 22:21:27 21° 267° (W) 22:24:42 .
UWE-3 28 Feb 22:20:36 22:23:30 16° 269° (W) 22:26:12 435.000/436.395/437.385
VERMONT LUNAR 28 Feb 22:22:52 22:26:15 49° 198° (SSW) 22:29:36 437.305
NANOSAT C BR1 28 Feb 22:24:43 22:28:23 29° 95° (E) 22:32:06 145.865
HUMSAT D 28 Feb 22:26:07 22:29:49 29° 264° (W) 22:33:27 437.325/437.525
SPROUT 28 Feb 22:30:37 22:34:00 23° 69° (ENE) 22:37:29 437.525
TIGRISAT 28 Feb 22:36:17 22:40:33 73° 102° (ESE) 22:44:51 435.000
DANDE 28 Feb 22:37:14 22:39:46 13° 90° (E) 22:42:30 436.750
TISAT 1 28 Feb 22:42:11 22:45:49 28° 70° (ENE) 22:49:30 437.305
50 SAT 28 Feb 22:46:36 22:49:49 22° 266° (W) 22:52:57 437.505
ANTELSAT 28 Feb 22:48:37 22:52:55 79° 284° (WNW) 22:57:15 437.575/2403.000
GONETS M04 28 Feb 22:51:56 23:00:22 52° 284° (WNW) 23:08:48
RS-15 28 Feb 22:54:27 23:04:46 53° 113° (ESE) 23:15:18 29.354- 29.394
QB50P1 28 Feb 22:56:35 23:00:49 70° 101° (ESE) 23:05:00 145.935-145.965
QB50P2 28 Feb 22:59:37 23:03:52 77° 103° (ESE) 23:08:05 145.880/145.840
AISAT 28 Feb 23:16:31 23:18:40 13° 271° (W) 23:20:34 437.250
CUSAT 1 28 Feb 23:16:41 23:22:30 33° 96° (E) 23:27:12 437.405
DUCHIFAT 1 28 Feb 23:16:44 23:20:57 70° 285° (WNW) 23:25:07 145.980
BUGSAT 1 28 Feb 23:18:32 23:22:45 89° 287° (WNW) 23:26:52 437.445
CUBEBUG 1 28 Feb 23:25:54 23:29:27 23° 267° (W) 23:32:56 437.445
ITUPSAT 1 28 Feb 23:31:03 23:33:59 17° 64° (ENE) 23:37:04 437.325
ESTCUBE 1 28 Feb 23:33:14 23:36:26 18° 269° (W) 23:39:29 437.505/2401.250
POLYITAN 1 28 Feb 23:34:33 23:38:34 42° 288° (WNW) 23:42:32 437.675
POPSAT HIP 1 28 Feb 23:36:13 23:40:13 41° 288° (WNW) 23:44:09 437.405
